When you browse on this site, cookies collect data to enhance your experience and personalize the content and advertising you see.
Visit our Privacy Policy to learn more. By continuing to use the site, you agree to this use of cookies and data.
  • In Hungary
  • List of Countries
  • For 7 days
  • Water Temperature
  • Satellite Maps
  • Weather Map
  • News
  • Weather Widgets
  • user-avatar
    Login

    Hourly Weather Rzozow

    Today, 25 May, Saturday

    Time Temperature Precipitation Wind Pressure Humidity
    00:00 +11°C° 0 mm 1 mps 738 mmHg 92%
    01:00 +11°C° 0 mm 1 mps 737 mmHg 92%
    02:00 +11°C° 0 mm 1 mps 738 mmHg 92%
    03:00 +10°C° 0 mm 1 mps 738 mmHg 92%
    04:00 +10°C° 0 mm 1 mps 738 mmHg 92%
    05:00 +12°C° 0 mm 1 mps 738 mmHg 87%
    06:00 +13°C° 0 mm 2 mps 738 mmHg 82%
    07:00 +15°C° 0 mm 2 mps 738 mmHg 77%
    08:00 +17°C° 0 mm 2 mps 738 mmHg 69%
    09:00 +18°C° 0 mm 2 mps 738 mmHg 61%
    10:00 +20°C° 0 mm 2 mps 738 mmHg 53%
    11:00 +21°C° 0 mm 2 mps 738 mmHg 51%
    12:00 +21°C° 0 mm 2 mps 738 mmHg 50%
    13:00 +23°C° 0 mm 2 mps 738 mmHg 48%
    14:00 +23°C° 0 mm 2 mps 738 mmHg 50%
    15:00 +23°C° 0 mm 2 mps 738 mmHg 52%
    16:00 +23°C° 0 mm 2 mps 737 mmHg 53%
    17:00 +20°C° 0 mm 2 mps 737 mmHg 60%
    18:00 +20°C° 0 mm 1 mps 737 mmHg 68%
    19:00 +18°C° 0 mm 1 mps 737 mmHg 75%
    20:00 +16°C° 0 mm 1 mps 738 mmHg 78%
    21:00 +15°C° 0 mm 1 mps 738 mmHg 81%
    22:00 +14°C° 0 mm 1 mps 738 mmHg 85%
    23:00 +14°C° 0 mm 1 mps 739 mmHg 85%

    Tomorrow, 26 May, Sunday

    Time Temperature Precipitation Wind Pressure Humidity
    00:00 +13°C° 0 mm 1 mps 739 mmHg 85%
    01:00 +13°C° 0 mm 1 mps 739 mmHg 86%
    02:00 +13°C° 0 mm 1 mps 739 mmHg 86%
    03:00 +13°C° 0 mm 1 mps 739 mmHg 87%
    04:00 +12°C° 0 mm 1 mps 739 mmHg 87%
    05:00 +14°C° 0 mm 1 mps 739 mmHg 84%
    06:00 +16°C° 0 mm 1 mps 739 mmHg 80%
    07:00 +18°C° 0 mm 1 mps 739 mmHg 76%
    08:00 +19°C° 0 mm 2 mps 739 mmHg 73%
    09:00 +20°C° 0 mm 2 mps 739 mmHg 69%
    10:00 +21°C° 0 mm 2 mps 739 mmHg 65%
    11:00 +23°C° 0.2 mm 2 mps 739 mmHg 64%
    12:00 +22°C° 0.2 mm 3 mps 739 mmHg 63%
    13:00 +24°C° 0.2 mm 3 mps 738 mmHg 62%
    14:00 +22°C° 0.4 mm 3 mps 738 mmHg 65%
    15:00 +22°C° 0.4 mm 3 mps 738 mmHg 68%
    16:00 +22°C° 0.4 mm 3 mps 738 mmHg 72%
    17:00 +21°C° 0.5 mm 2 mps 738 mmHg 76%
    18:00 +19°C° 0.5 mm 2 mps 738 mmHg 81%
    19:00 +18°C° 0.5 mm 2 mps 738 mmHg 85%
    20:00 +17°C° 0.1 mm 2 mps 738 mmHg 87%
    21:00 +16°C° 0.1 mm 2 mps 738 mmHg 89%
    22:00 +16°C° 0.1 mm 2 mps 738 mmHg 91%
    23:00 +15°C° 0 mm 2 mps 738 mmHg 92%

    Day after tomorrow, 27 May, Monday

    Time Temperature Precipitation Wind Pressure Humidity
    00:00 +15°C° 0 mm 2 mps 738 mmHg 92%
    01:00 +14°C° 0 mm 1 mps 738 mmHg 92%
    02:00 +14°C° 0 mm 2 mps 738 mmHg 92%
    03:00 +14°C° 0 mm 2 mps 737 mmHg 92%
    04:00 +14°C° 0 mm 2 mps 737 mmHg 91%
    05:00 +16°C° 0 mm 2 mps 737 mmHg 88%
    06:00 +17°C° 0 mm 2 mps 737 mmHg 85%
    07:00 +19°C° 0 mm 2 mps 738 mmHg 82%
    08:00 +20°C° 0.2 mm 2 mps 737 mmHg 76%
    09:00 +22°C° 0.2 mm 3 mps 737 mmHg 71%
    10:00 +24°C° 0.2 mm 3 mps 737 mmHg 66%
    11:00 +25°C° 0.2 mm 3 mps 737 mmHg 61%
    12:00 +26°C° 0.2 mm 3 mps 737 mmHg 57%
    13:00 +27°C° 0.2 mm 3 mps 737 mmHg 52%
    14:00 +26°C° 0.3 mm 3 mps 737 mmHg 57%
    15:00 +26°C° 0.3 mm 3 mps 736 mmHg 62%
    16:00 +25°C° 0.3 mm 3 mps 736 mmHg 67%
    17:00 +24°C° 0.2 mm 2 mps 736 mmHg 71%
    18:00 +21°C° 0.2 mm 2 mps 736 mmHg 76%
    19:00 +21°C° 0.2 mm 1 mps 736 mmHg 80%
    20:00 +20°C° 0 mm 1 mps 736 mmHg 82%
    21:00 +19°C° 0 mm 1 mps 736 mmHg 84%
    22:00 +18°C° 0 mm 1 mps 736 mmHg 87%
    23:00 +18°C° 1.2 mm 1 mps 735 mmHg 89%

    28 May, Tuesday

    Time Temperature Precipitation Wind Pressure Humidity
    00:00 +18°C° 1.2 mm 1 mps 735 mmHg 91%
    01:00 +18°C° 1.2 mm 1 mps 735 mmHg 93%
    02:00 +18°C° 0.8 mm 1 mps 734 mmHg 94%
    03:00 +16°C° 0.8 mm 1 mps 734 mmHg 94%
    04:00 +16°C° 0.8 mm 1 mps 734 mmHg 95%
    05:00 +18°C° 0 mm 1 mps 734 mmHg 93%
    06:00 +19°C° 0 mm 1 mps 734 mmHg 90%
    07:00 +20°C° 0 mm 1 mps 733 mmHg 88%
    08:00 +22°C° 0 mm 1 mps 733 mmHg 79%
    09:00 +24°C° 0 mm 1 mps 733 mmHg 69%
    10:00 +25°C° 0 mm 1 mps 733 mmHg 60%
    11:00 +25°C° 0.5 mm 1 mps 733 mmHg 64%
    12:00 +25°C° 0.5 mm 1 mps 733 mmHg 67%
    13:00 +24°C° 0.5 mm 1 mps 732 mmHg 70%
    14:00 +23°C° 2.7 mm 1 mps 732 mmHg 76%
    15:00 +22°C° 2.7 mm 1 mps 732 mmHg 82%
    16:00 +21°C° 2.7 mm 1 mps 731 mmHg 87%
    17:00 +20°C° 0.7 mm 1 mps 731 mmHg 88%
    18:00 +20°C° 0.7 mm 1 mps 732 mmHg 88%
    19:00 +19°C° 0.7 mm 1 mps 732 mmHg 88%
    20:00 +19°C° 1 mm 1 mps 732 mmHg 88%
    21:00 +18°C° 1 mm 1 mps 732 mmHg 88%
    22:00 +18°C° 1 mm 1 mps 732 mmHg 88%
    23:00 +16°C° 0.1 mm 1 mps 733 mmHg 91%

    29 May, Wednesday

    Time Temperature Precipitation Wind Pressure Humidity
    00:00 +16°C° 0.1 mm 2 mps 733 mmHg 93%
    01:00 +14°C° 0.1 mm 3 mps 733 mmHg 96%
    02:00 +14°C° 0.9 mm 3 mps 734 mmHg 96%
    03:00 +14°C° 0.9 mm 3 mps 734 mmHg 96%
    04:00 +14°C° 0.9 mm 3 mps 735 mmHg 96%
    05:00 +13°C° 1.2 mm 3 mps 735 mmHg 95%
    06:00 +13°C° 1.2 mm 4 mps 736 mmHg 95%
    07:00 +12°C° 1.2 mm 4 mps 737 mmHg 94%
    08:00 +12°C° 0.7 mm 4 mps 737 mmHg 94%
    09:00 +11°C° 0.7 mm 4 mps 738 mmHg 94%
    10:00 +11°C° 0.7 mm 4 mps 739 mmHg 94%
    11:00 +11°C° 0.1 mm 3 mps 739 mmHg 92%
    12:00 +11°C° 0.1 mm 3 mps 740 mmHg 91%
    13:00 +12°C° 0.1 mm 2 mps 740 mmHg 89%
    14:00 +13°C° 0 mm 2 mps 741 mmHg 86%
    15:00 +14°C° 0 mm 2 mps 741 mmHg 83%
    16:00 +14°C° 0 mm 2 mps 742 mmHg 80%
    17:00 +14°C° 0 mm 2 mps 742 mmHg 82%
    18:00 +14°C° 0 mm 2 mps 742 mmHg 83%
    19:00 +13°C° 0 mm 2 mps 743 mmHg 85%
    20:00 +13°C° 0 mm 2 mps 743 mmHg 85%
    21:00 +12°C° 0 mm 2 mps 744 mmHg 86%
    22:00 +10°C° 0 mm 2 mps 744 mmHg 87%
    23:00 +9°C° 0 mm 2 mps 744 mmHg 89%

    30 May, Thursday

    Time Temperature Precipitation Wind Pressure Humidity
    00:00 +10°C° 0 mm 1 mps 745 mmHg 90%
    01:00 +9°C° 0 mm 1 mps 745 mmHg 92%
    02:00 +9°C° 0 mm 1 mps 745 mmHg 93%
    03:00 +8°C° 0 mm 1 mps 745 mmHg 94%
    04:00 +8°C° 0 mm 1 mps 745 mmHg 94%
    05:00 +9°C° 0 mm 1 mps 746 mmHg 90%
    06:00 +9°C° 0 mm 2 mps 746 mmHg 86%
    07:00 +10°C° 0 mm 2 mps 746 mmHg 82%
    08:00 +12°C° 0.2 mm 2 mps 746 mmHg 79%
    09:00 +12°C° 0.2 mm 2 mps 746 mmHg 75%
    10:00 +13°C° 0.2 mm 2 mps 746 mmHg 72%
    11:00 +12°C° 0.4 mm 2 mps 745 mmHg 73%
    12:00 +12°C° 0.4 mm 2 mps 745 mmHg 74%
    13:00 +12°C° 0.4 mm 2 mps 745 mmHg 75%
    14:00 +13°C° 0 mm 2 mps 745 mmHg 73%
    15:00 +13°C° 0 mm 2 mps 744 mmHg 70%
    16:00 +13°C° 0 mm 2 mps 744 mmHg 67%
    17:00 +12°C° 0 mm 1 mps 744 mmHg 70%
    18:00 +11°C° 0 mm 1 mps 744 mmHg 73%
    19:00 +11°C° 0 mm 1 mps 744 mmHg 76%
    20:00 +10°C° 0 mm 1 mps 744 mmHg 76%
    21:00 +9°C° 0 mm 1 mps 744 mmHg 76%
    22:00 +9°C° 0 mm 1 mps 744 mmHg 76%
    23:00 +8°C° 0 mm 1 mps 744 mmHg 75%
    Show more